sat.trackr.live / text

‹ back to catalog

YAM-8

NORAD 63254 · 2025-052AW

PAYLOAD ACTIVE UNKNOWN

§ Identity

Operator
Country
US
Launch date
2025-03-15
Launch site
AFWTR
Launch vehicle
Mass (kg)
RCS (m²)

External: N2YO · Heavens-Above · Gunter

§ Orbital elements

Epoch: 2026-09-22T20:49:34.563360Z

Period
95.41 min
Inclination
97.6823°
Eccentricity
0.0002956
Mean motion
15.09284470 rev/d
Perigee alt
536.3 km
Apogee alt
540.4 km
Semi-major
6,916.5 km
B*
2.0618e-4
RAAN
167.7841°
Arg perigee
129.7148°
Mean anomaly
230.4341°
Rev number
8,401

§ Raw data

YAM-81 63254U 25052AW  26265.86776115  .00003220  00000+0  20618-3 0  99922 63254  97.6823 167.7841 0002956 129.7148 230.4341 15.09284470 84015

JSON: /api/v1/satellites/63254 · /tle

For live sub-satellite position, see the globe view (requires WebGL).

§ Visibility from observer

Set your observer location to see the next 7 days of passes ≥ 10°. The values pass through the URL so the page stays shareable.

No JS? Fill the form by hand. The geolocation button needs JavaScript.

§ Radio — SatNOGS DB

ModeDescriptionDownlinkUplink
BPSK S-band telemetry 2.248 GHz

1 transmitter · refreshed weekly from db.satnogs.org